AXM404 WIEE-WMKK

Flight info

Callsign AXM404
Flight time 0h 53m
Altitude 31000
Route OSNIS W22 PKU N633 SALAX SALAX1J
Aircraft A320/M-SDE3FGHIRWY/LB1

Departure

Time 2026-05-05 11:37
Airport Minangkabau International Airport (WIEE)

Arrival

Time 2026-05-05 12:31
Airport Kuala Lumpur International Airport (WMKK)
Time Latitude Longitude Altitude Speed Heading
2026-05-05 11:07 -0.78629 100.28492 24 ft 0 kts 65°
2026-05-05 11:28 -0.78635 100.28479 25 ft 4 kts 68°
2026-05-05 11:28 -0.78644 100.28454 25 ft 4 kts 77°
2026-05-05 11:29 -0.78648 100.28427 25 ft 4 kts 88°
2026-05-05 11:29 -0.78646 100.28401 28 ft 4 kts 111°
2026-05-05 11:29 -0.78633 100.28383 27 ft 2 kts 154°
2026-05-05 11:29 -0.78633 100.28382 27 ft 0 kts 155°
2026-05-05 11:32 -0.78634 100.28383 27 ft 2 kts 155°
2026-05-05 11:32 -0.78677 100.28403 24 ft 11 kts 155°
2026-05-05 11:32 -0.78742 100.28433 25 ft 9 kts 155°
2026-05-05 11:32 -0.78796 100.28458 24 ft 8 kts 153°
2026-05-05 11:33 -0.78841 100.28479 25 ft 6 kts 156°
2026-05-05 11:33 -0.78876 100.28475 24 ft 5 kts 210°
2026-05-05 11:33 -0.78903 100.28438 25 ft 10 kts 242°
2026-05-05 11:33 -0.78935 100.28369 28 ft 12 kts 245°
2026-05-05 11:34 -0.78972 100.28290 31 ft 11 kts 245°
2026-05-05 11:34 -0.79010 100.28239 32 ft 8 kts 201°
2026-05-05 11:34 -0.79073 100.28257 30 ft 15 kts 155°
2026-05-05 11:34 -0.79201 100.28317 29 ft 23 kts 154°
2026-05-05 11:35 -0.79348 100.28387 28 ft 24 kts 155°
2026-05-05 11:35 -0.79508 100.28461 27 ft 26 kts 155°
2026-05-05 11:35 -0.79669 100.28536 30 ft 23 kts 155°
2026-05-05 11:35 -0.79744 100.28584 30 ft 10 kts 126°
2026-05-05 11:36 -0.79782 100.28631 30 ft 7 kts 168°
2026-05-05 11:36 -0.79794 100.28600 30 ft 5 kts 294°
2026-05-05 11:36 -0.79768 100.28582 30 ft 4 kts 336°
2026-05-05 11:36 -0.79673 100.28539 30 ft 43 kts 335°
2026-05-05 11:37 -0.79179 100.28307 29 ft 110 kts 335°
2026-05-05 11:37 -0.78322 100.27907 27 ft 160 kts 335°
2026-05-05 11:37 -0.77247 100.27410 433 ft 171 kts 335°
2026-05-05 11:37 -0.76169 100.26916 1074 ft 170 kts 335°
2026-05-05 11:38 -0.75071 100.26413 1555 ft 182 kts 335°
2026-05-05 11:38 -0.73851 100.25853 1801 ft 204 kts 335°
2026-05-05 11:38 -0.72494 100.25227 2069 ft 224 kts 335°
2026-05-05 11:38 -0.71012 100.24546 2476 ft 242 kts 335°
2026-05-05 11:39 -0.69468 100.23835 3348 ft 246 kts 336°
2026-05-05 11:39 -0.67897 100.23111 3967 ft 250 kts 335°
2026-05-05 11:39 -0.66307 100.22380 4686 ft 252 kts 335°
2026-05-05 11:39 -0.64736 100.21588 5443 ft 255 kts 323°
2026-05-05 11:40 -0.63610 100.20262 6174 ft 258 kts 294°
2026-05-05 11:40 -0.63294 100.18506 6857 ft 261 kts 263°
2026-05-05 11:40 -0.63857 100.16780 7565 ft 264 kts 244°
2026-05-05 11:40 -0.64646 100.15110 8283 ft 267 kts 244°
2026-05-05 11:41 -0.65449 100.13424 9000 ft 270 kts 244°
2026-05-05 11:41 -0.66261 100.11716 9690 ft 274 kts 244°
2026-05-05 11:41 -0.67078 100.09984 10315 ft 277 kts 244°
2026-05-05 11:41 -0.67991 100.08278 10929 ft 281 kts 231°
2026-05-05 11:42 -0.69500 100.07059 11531 ft 283 kts 202°
2026-05-05 11:42 -0.71416 100.06688 12148 ft 284 kts 174°
2026-05-05 11:42 -0.73291 100.07256 12756 ft 285 kts 150°
2026-05-05 11:42 -0.75032 100.08226 13397 ft 288 kts 150°
2026-05-05 11:43 -0.76784 100.09216 13979 ft 291 kts 149°
2026-05-05 11:43 -0.77951 100.09876 14347 ft 292 kts 149°
2026-05-05 11:43 -0.79753 100.10894 14909 ft 295 kts 149°
2026-05-05 11:43 -0.81430 100.12025 15437 ft 296 kts 134°
2026-05-05 11:44 -0.82585 100.13715 15967 ft 297 kts 110°
2026-05-05 11:44 -0.82971 100.15769 16199 ft 311 kts 86°
2026-05-05 11:44 -0.82449 100.17918 16332 ft 329 kts 69°
2026-05-05 11:44 -0.81618 100.20111 16449 ft 346 kts 69°
2026-05-05 11:45 -0.80739 100.22413 16584 ft 362 kts 69°
2026-05-05 11:45 -0.79835 100.24789 16924 ft 369 kts 69°
2026-05-05 11:45 -0.78922 100.27201 17409 ft 373 kts 70°
2026-05-05 11:45 -0.77946 100.29614 17898 ft 376 kts 67°
2026-05-05 11:46 -0.76865 100.32005 18357 ft 379 kts 65°
2026-05-05 11:46 -0.75721 100.34385 18789 ft 381 kts 64°
2026-05-05 11:46 -0.74551 100.36772 19236 ft 384 kts 64°
2026-05-05 11:46 -0.73376 100.39174 19667 ft 386 kts 64°
2026-05-05 11:47 -0.72207 100.41596 20095 ft 388 kts 65°
2026-05-05 11:47 -0.71045 100.44038 20516 ft 390 kts 65°
2026-05-05 11:47 -0.69886 100.46501 20921 ft 393 kts 65°
2026-05-05 11:47 -0.68726 100.48980 21326 ft 395 kts 65°
2026-05-05 11:48 -0.66387 100.53982 22118 ft 400 kts 65°
2026-05-05 11:48 -0.65206 100.56509 22505 ft 402 kts 65°
2026-05-05 11:48 -0.64018 100.59046 22883 ft 405 kts 65°
2026-05-05 11:49 -0.62817 100.61599 23257 ft 407 kts 65°
2026-05-05 11:49 -0.61607 100.64166 23596 ft 410 kts 65°
2026-05-05 11:49 -0.60367 100.66737 23903 ft 412 kts 62°
2026-05-05 11:49 -0.58802 100.69143 24200 ft 414 kts 55°
2026-05-05 11:50 -0.57122 100.71493 24512 ft 416 kts 55°
2026-05-05 11:50 -0.55436 100.73852 24820 ft 418 kts 55°
2026-05-05 11:50 -0.53743 100.76221 25128 ft 420 kts 55°
2026-05-05 11:50 -0.52043 100.78601 25437 ft 422 kts 55°
2026-05-05 11:51 -0.50339 100.80990 25741 ft 423 kts 55°
2026-05-05 11:51 -0.48624 100.83392 26035 ft 425 kts 55°
2026-05-05 11:51 -0.46902 100.85803 26343 ft 427 kts 55°
2026-05-05 11:51 -0.45174 100.88225 26632 ft 429 kts 55°
2026-05-05 11:52 -0.43464 100.90622 26910 ft 431 kts 55°
2026-05-05 11:52 -0.41722 100.93065 27181 ft 432 kts 56°
2026-05-05 11:52 -0.39974 100.95517 27455 ft 434 kts 55°
2026-05-05 11:52 -0.38220 100.97980 27737 ft 436 kts 55°
2026-05-05 11:53 -0.36459 101.00449 28029 ft 437 kts 55°
2026-05-05 11:53 -0.34689 101.02930 28313 ft 439 kts 56°
2026-05-05 11:53 -0.32915 101.05416 28600 ft 440 kts 55°
2026-05-05 11:53 -0.31133 101.07907 28874 ft 442 kts 55°
2026-05-05 11:54 -0.29342 101.10408 29128 ft 443 kts 55°
2026-05-05 11:54 -0.27545 101.12916 29393 ft 445 kts 55°
2026-05-05 11:54 -0.25742 101.15440 29647 ft 447 kts 55°
2026-05-05 11:54 -0.23939 101.17971 29888 ft 448 kts 56°
2026-05-05 11:55 -0.22127 101.20515 30090 ft 450 kts 55°
2026-05-05 11:55 -0.20311 101.23066 30274 ft 452 kts 55°
2026-05-05 11:55 -0.18483 101.25631 30457 ft 454 kts 55°
2026-05-05 11:55 -0.16646 101.28203 30650 ft 455 kts 55°
2026-05-05 11:56 -0.14804 101.30779 30763 ft 455 kts 55°
2026-05-05 11:56 -0.12993 101.33307 30793 ft 440 kts 55°
2026-05-05 11:56 -0.09483 101.38222 30797 ft 431 kts 54°
2026-05-05 11:57 -0.07493 101.40458 30805 ft 432 kts 43°
2026-05-05 11:57 -0.05074 101.42234 30805 ft 433 kts 31°
2026-05-05 11:57 -0.02322 101.43463 30805 ft 435 kts 18°
2026-05-05 11:57 0.00646 101.44081 30793 ft 438 kts
2026-05-05 11:58 0.06760 101.44133 30787 ft 440 kts
2026-05-05 11:58 0.12889 101.44131 30782 ft 440 kts
2026-05-05 11:59 0.19013 101.44140 30785 ft 440 kts
2026-05-05 11:59 0.25137 101.44152 30782 ft 440 kts
2026-05-05 12:00 0.31258 101.44164 30774 ft 440 kts
2026-05-05 12:00 0.37381 101.44166 30773 ft 440 kts
2026-05-05 12:01 0.43500 101.44181 30773 ft 440 kts
2026-05-05 12:01 0.49601 101.44498 30772 ft 439 kts
2026-05-05 12:02 0.55682 101.45010 30775 ft 438 kts
2026-05-05 12:02 0.61725 101.45487 30775 ft 439 kts
2026-05-05 12:03 0.67852 101.45912 30775 ft 439 kts
2026-05-05 12:03 0.73903 101.46306 30775 ft 439 kts
2026-05-05 12:04 0.79989 101.46711 30779 ft 438 kts
2026-05-05 12:04 0.86075 101.47133 30777 ft 438 kts
2026-05-05 12:05 0.92155 101.47556 30786 ft 438 kts
2026-05-05 12:05 0.98235 101.47971 30786 ft 438 kts
2026-05-05 12:06 1.04316 101.48379 30786 ft 438 kts
2026-05-05 12:06 1.10392 101.48790 30780 ft 438 kts
2026-05-05 12:07 1.16519 101.49214 30801 ft 449 kts
2026-05-05 12:07 1.22855 101.49652 30801 ft 462 kts
2026-05-05 12:08 1.29294 101.50091 30801 ft 463 kts
2026-05-05 12:08 1.32465 101.50304 30624 ft 451 kts
2026-05-05 12:08 1.35544 101.50509 30504 ft 437 kts
2026-05-05 12:09 1.38532 101.50707 30353 ft 425 kts
2026-05-05 12:09 1.41456 101.50905 30006 ft 418 kts
2026-05-05 12:09 1.44346 101.51104 29549 ft 414 kts
2026-05-05 12:09 1.47209 101.51303 29055 ft 411 kts
2026-05-05 12:10 1.50051 101.51500 28567 ft 408 kts
2026-05-05 12:10 1.52870 101.51693 28073 ft 405 kts
2026-05-05 12:10 1.55671 101.51883 27594 ft 402 kts
2026-05-05 12:10 1.58449 101.52070 27130 ft 399 kts
2026-05-05 12:11 1.61208 101.52258 26673 ft 396 kts
2026-05-05 12:11 1.63946 101.52446 26221 ft 393 kts
2026-05-05 12:11 1.66664 101.52632 25783 ft 390 kts
2026-05-05 12:11 1.69364 101.52816 25349 ft 388 kts
2026-05-05 12:12 1.72049 101.52999 24922 ft 385 kts
2026-05-05 12:12 1.74716 101.53181 24505 ft 383 kts
2026-05-05 12:12 1.77326 101.53359 24098 ft 380 kts
2026-05-05 12:12 1.79957 101.53538 23691 ft 378 kts
2026-05-05 12:13 1.82574 101.53716 23270 ft 376 kts
2026-05-05 12:13 1.85174 101.53894 22805 ft 373 kts
2026-05-05 12:13 1.87755 101.54072 22360 ft 371 kts
2026-05-05 12:13 1.90320 101.54251 21919 ft 369 kts
2026-05-05 12:14 1.92867 101.54427 21503 ft 366 kts
2026-05-05 12:14 1.95401 101.54601 21112 ft 363 kts
2026-05-05 12:14 1.97915 101.54771 20718 ft 361 kts
2026-05-05 12:14 2.00412 101.54939 20328 ft 358 kts
2026-05-05 12:15 2.02891 101.55108 19945 ft 356 kts
2026-05-05 12:15 2.05355 101.55279 19566 ft 353 kts
2026-05-05 12:15 2.07799 101.55449 19196 ft 351 kts
2026-05-05 12:15 2.10237 101.55513 18836 ft 350 kts
2026-05-05 12:16 2.12663 101.55432 18478 ft 348 kts 360°
2026-05-05 12:16 2.15076 101.55318 18134 ft 346 kts 359°
2026-05-05 12:16 2.17475 101.55190 17734 ft 344 kts 359°
2026-05-05 12:16 2.19859 101.55058 17349 ft 342 kts 359°
2026-05-05 12:17 2.22230 101.54930 16976 ft 340 kts 359°
2026-05-05 12:17 2.24587 101.54809 16615 ft 338 kts 359°
2026-05-05 12:17 2.26926 101.54694 16262 ft 336 kts 359°
2026-05-05 12:17 2.29255 101.54581 15920 ft 334 kts 359°
2026-05-05 12:18 2.31571 101.54469 15577 ft 332 kts 359°
2026-05-05 12:18 2.33873 101.54359 15241 ft 330 kts 359°
2026-05-05 12:18 2.36163 101.54251 14911 ft 329 kts 359°
2026-05-05 12:18 2.38442 101.54144 14586 ft 327 kts 359°
2026-05-05 12:19 2.40709 101.54037 14268 ft 325 kts 358°
2026-05-05 12:19 2.42951 101.53932 14109 ft 318 kts 358°
2026-05-05 12:19 2.45131 101.53829 13987 ft 309 kts 358°
2026-05-05 12:19 2.47252 101.53771 13868 ft 300 kts
2026-05-05 12:20 2.49207 101.54242 13732 ft 281 kts 26°
2026-05-05 12:20 2.50802 101.55290 13351 ft 272 kts 46°
2026-05-05 12:20 2.51912 101.56788 12847 ft 268 kts 65°
2026-05-05 12:20 2.52450 101.58552 12340 ft 265 kts 84°
2026-05-05 12:21 2.52383 101.60381 11826 ft 264 kts 102°
2026-05-05 12:21 2.51725 101.62086 11332 ft 263 kts 120°
2026-05-05 12:21 2.50783 101.63627 10837 ft 263 kts 121°
2026-05-05 12:21 2.49835 101.65190 10358 ft 262 kts 120°
2026-05-05 12:22 2.48897 101.66748 9895 ft 261 kts 120°
2026-05-05 12:22 2.47965 101.68303 9414 ft 260 kts 120°
2026-05-05 12:22 2.47050 101.69828 9126 ft 250 kts 120°
2026-05-05 12:22 2.46179 101.71276 8930 ft 238 kts 120°
2026-05-05 12:23 2.45335 101.72676 8580 ft 234 kts 120°
2026-05-05 12:23 2.44499 101.74062 8186 ft 232 kts 120°
2026-05-05 12:23 2.43669 101.75435 7799 ft 230 kts 120°
2026-05-05 12:23 2.42847 101.76799 7419 ft 228 kts 120°
2026-05-05 12:24 2.42224 101.78238 7058 ft 225 kts 102°
2026-05-05 12:24 2.42088 101.79777 6684 ft 222 kts 84°
2026-05-05 12:24 2.42432 101.81272 6395 ft 221 kts 67°
2026-05-05 12:24 2.43191 101.82598 6159 ft 219 kts 56°
2026-05-05 12:25 2.44163 101.83787 5711 ft 227 kts 41°
2026-05-05 12:25 2.45537 101.84595 5371 ft 230 kts 19°
2026-05-05 12:25 2.47099 101.84846 5158 ft 227 kts 358°
2026-05-05 12:25 2.48630 101.84532 4937 ft 226 kts 338°
2026-05-05 12:26 2.49981 101.83740 4670 ft 226 kts 327°
2026-05-05 12:26 2.51287 101.82860 4385 ft 227 kts 327°
2026-05-05 12:26 2.52598 101.81979 4090 ft 227 kts 327°
2026-05-05 12:26 2.53915 101.81096 3792 ft 228 kts 327°
2026-05-05 12:27 2.55237 101.80210 3495 ft 229 kts 327°
2026-05-05 12:27 2.56542 101.79335 3202 ft 227 kts 327°
2026-05-05 12:27 2.57835 101.78468 2924 ft 220 kts 327°
2026-05-05 12:27 2.59091 101.77626 2636 ft 214 kts 327°
2026-05-05 12:28 2.60315 101.76806 2370 ft 209 kts 326°
2026-05-05 12:28 2.61512 101.76004 2129 ft 202 kts 326°
2026-05-05 12:28 2.62643 101.75246 1860 ft 190 kts 325°
2026-05-05 12:28 2.63706 101.74534 1637 ft 176 kts 325°
2026-05-05 12:29 2.64667 101.73889 1408 ft 159 kts 325°
2026-05-05 12:29 2.65560 101.73291 1204 ft 151 kts 325°
2026-05-05 12:29 2.66422 101.72712 1013 ft 148 kts 325°
2026-05-05 12:29 2.67270 101.72143 864 ft 146 kts 326°
2026-05-05 12:30 2.68113 101.71578 697 ft 146 kts 326°
2026-05-05 12:30 2.68955 101.71015 518 ft 145 kts 326°
2026-05-05 12:30 2.69793 101.70453 329 ft 145 kts 326°
2026-05-05 12:30 2.70630 101.69890 138 ft 145 kts 326°
2026-05-05 12:31 2.71436 101.69350 39 ft 127 kts 326°
2026-05-05 12:31 2.72032 101.68954 39 ft 78 kts 326°
2026-05-05 12:31 2.72338 101.68745 36 ft 29 kts 326°
2026-05-05 12:31 2.72490 101.68657 37 ft 25 kts 338°
2026-05-05 12:32 2.72660 101.68623 37 ft 25 kts 354°
2026-05-05 12:32 2.72835 101.68603 38 ft 22 kts 351°
2026-05-05 12:32 2.72927 101.68558 39 ft 23 kts 324°
2026-05-05 12:32 2.73064 101.68466 39 ft 24 kts 326°
2026-05-05 12:33 2.73210 101.68367 38 ft 26 kts 326°
2026-05-05 12:33 2.73352 101.68272 38 ft 23 kts 326°
2026-05-05 12:33 2.73490 101.68178 38 ft 25 kts 326°
2026-05-05 12:33 2.73635 101.68090 38 ft 11 kts 354°
2026-05-05 12:34 2.73675 101.68112 36 ft 10 kts 50°
2026-05-05 12:34 2.73691 101.68161 40 ft 7 kts 94°
2026-05-05 12:34 2.73690 101.68205 40 ft 9 kts 62°
2026-05-05 12:34 2.73728 101.68262 42 ft 9 kts 56°
2026-05-05 12:35 2.73760 101.68309 41 ft 8 kts 56°
2026-05-05 12:35 2.73796 101.68363 42 ft 11 kts 56°
2026-05-05 12:35 2.73845 101.68436 42 ft 10 kts 56°
2026-05-05 12:35 2.73824 101.68487 42 ft 8 kts 147°
2026-05-05 12:36 2.73795 101.68506 42 ft 3 kts 146°
2026-05-05 12:36 2.73793 101.68508 42 ft 0 kts 146°